Weather History for Minneapolis Flying Cloud, MN

Change the Weather History Date:

Monday, October 7, 2013

  Actual Average Record
Temperature  
Mean Temperature 54 °F -  
Max Temperature 68 °F 62 °F 88 °F (2003)
Min Temperature 42 °F 41 °F 25 °F (2012)
Degree Days  
Heating Degree Days 11    
Growing Degree Days 4 (Base 50)    
Moisture  
Dew Point 42 °F    
Average Humidity 68    
Maximum Humidity 96    
Minimum Humidity 33    
Precipitation  
Precipitation 0.00 in - - ()
Sea Level Pressure  
Sea Level Pressure 29.93 in    
Wind  
Wind Speed 4 mph (WSW)    
Max Wind Speed 7 mph    
Max Gust Speed -    
Visibility 10 miles    
Events      
Averages and records for this station are not official NWS values.
T = Trace of Precipitation, MM = Missing Value Source: NWS Daily Summary

Daily Weather History Graph

Daily Weather History Graph

Search for Another Location

Airport:

Trip Planner

Search our weather history database for the weather conditions in past years. The results will help you decide how hot, cold, wet, or windy it might be!

Date:

Astronomy

Oct. 07, 2013 Rise Set
Actual Time 7:19 AM CDT 6:42 PM CDT
Civil Twilight 6:50 AM CDT 7:12 PM CDT
Nautical Twilight 6:16 AM CDT 7:45 PM CDT
Astronomical Twilight 5:42 AM CDT 8:19 PM CDT
Moon 10:18 AM CDT (10/7) 8:19 PM CDT (10/7)
Length of Visible Light 12h 21m
Length of Day
11h 23m
Waxing Crescent, 9% of the Moon is Illuminated
Oct 7
Waxing Crescent
Oct 11
First Quarter
Oct 18
Full
Oct 26
Last Quarter
Nov 3
New

Hourly Weather History & Observations

Time (CDT) Temp. Windchill Dew Point Humidity Pressure Visibility Wind Dir Wind Speed Gust Speed Precip Events Conditions
12:53 AM 46.9 °F - 43.0 °F 86% 29.85 in 10.0 mi WNW 6.9 mph - N/A   Clear
1:53 AM 45.0 °F - 43.0 °F 93% 29.86 in 10.0 mi Calm Calm - N/A   Clear
2:53 AM 43.0 °F 40.3 °F 41.0 °F 93% 29.84 in 10.0 mi SW 4.6 mph - N/A   Mostly Cloudy
3:53 AM 44.1 °F 42.5 °F 42.1 °F 93% 29.84 in 10.0 mi SW 3.5 mph - N/A   Overcast
4:53 AM 43.0 °F 40.3 °F 39.9 °F 89% 29.85 in 10.0 mi WSW 4.6 mph - N/A   Clear
5:53 AM 42.1 °F 39.2 °F 39.9 °F 92% 29.86 in 10.0 mi SW 4.6 mph - N/A   Clear
6:53 AM 42.1 °F 40.2 °F 39.9 °F 92% 29.88 in 10.0 mi WSW 3.5 mph - N/A   Clear
7:53 AM 42.1 °F 40.2 °F 41.0 °F 96% 29.91 in 10.0 mi WSW 3.5 mph - N/A   Clear
8:53 AM 48.0 °F - 45.0 °F 89% 29.92 in 10.0 mi Calm Calm - N/A   Clear
9:53 AM 55.0 °F - 46.0 °F 72% 29.95 in 10.0 mi NNW 5.8 mph - N/A   Clear
10:53 AM 59.0 °F - 45.0 °F 60% 29.96 in 10.0 mi Calm Calm - N/A   Clear
11:53 AM 62.1 °F - 44.1 °F 52% 29.96 in 10.0 mi North 4.6 mph - N/A   Clear
12:53 PM 64.0 °F - 44.1 °F 48% 29.97 in 10.0 mi Calm Calm - N/A   Clear
1:53 PM 64.9 °F - 39.9 °F 40% 29.96 in 10.0 mi WNW 6.9 mph - N/A   Clear
2:53 PM 66.0 °F - 41.0 °F 40% 29.97 in 10.0 mi West 4.6 mph - N/A   Clear
3:53 PM 66.9 °F - 37.0 °F 33% 29.96 in 10.0 mi West 6.9 mph - N/A   Clear
4:53 PM 66.0 °F - 37.9 °F 36% 29.96 in 10.0 mi West 4.6 mph - N/A   Clear
5:53 PM 66.0 °F - 37.9 °F 36% 29.96 in 10.0 mi Calm Calm - N/A   Clear
6:53 PM 59.0 °F - 43.0 °F 55% 29.96 in 10.0 mi Calm Calm - N/A   Clear
7:53 PM 57.9 °F - 42.1 °F 56% 29.97 in 10.0 mi SE 3.5 mph - N/A   Clear
8:53 PM 54.0 °F - 42.1 °F 64% 29.98 in 10.0 mi ESE 4.6 mph - N/A   Clear
9:53 PM 54.0 °F - 43.0 °F 66% 29.98 in 10.0 mi ESE 4.6 mph - N/A   Clear
10:53 PM 53.1 °F - 43.0 °F 69% 29.97 in 10.0 mi ESE 4.6 mph - N/A   Clear
11:53 PM 51.1 °F - 42.1 °F 71% 29.97 in 10.0 mi ESE 4.6 mph - N/A   Clear